Find Kosmos-1878

NORAD ID: 18337 Int'l Des: 1987-074 Owner: UNKS Country: SU operational
LEOCIRCULARPOLAR

Current View

Loading 3D Globe...

About Kosmos-1878

Description loading...

Upcoming Passes

Passes for default location (London). Set your location on the main map for personalized predictions.

Altitude History

Loading altitude history...

Two-Line Element Set

1 18337U 87074D 26149.93104235 .00000025 00000-0 76592-4 0 9997
2 18337 82.5685 304.3948 0002107 266.1741 262.8678 12.64385636786987
Epoch: May 29, 2026 • Age: 16 hours

Current Status

Altitude 1415.9 km
Velocity 7.15 km/s
Sub-Earth Point -31.59°S, 164.4°W
Launch Date Sep 7, 1987
Age 38.7 years
Type other

Technical Details

Classification Payload
Mass 225.00 kg
Dry Mass 225.00 kg
Total Mass 225.00 kg
Length 1.60 m
Diameter 0.80 m
Span 7.00 m
Shape Cyl + Ant
Manufacturer NPOPM
Bus Type Strela-3
Phase Status In Orbit
Owner/State UNKS/SU

Most Searched